This is the latest recevied weather packets stored in our database for station/object W0PE-1. If no packets are shown the sender has not sent any weather packets the latest 10 day(s).
| Time | Temp. | Humidity | Pressure | Rain* | Wind** | Luminosity | Snow |
|---|---|---|---|---|---|---|---|
| 1777687247 | 21.11° C | 66% | 1010.9 hPa | 0 mm | - | - | - |
| 1777686346 | 21.67° C | 66% | 1010.9 hPa | 0 mm | - | - | - |
| 1777685446 | 22.22° C | 65% | 1010.9 hPa | 0 mm | - | - | - |
| 1777684546 | 22.22° C | 64% | 1010.7 hPa | 0 mm | - | - | - |
| 1777683651 | 22.22° C | 64% | 1010.7 hPa | 0 mm | - | - | - |
| 1777682755 | 22.22° C | 63% | 1010.7 hPa | 0 mm | - | - | - |
| 1777681843 | 22.78° C | 62% | 1010.7 hPa | 0 mm | - | - | - |
| 1777680942 | 23.33° C | 61% | 1010.8 hPa | 0 mm | - | - | - |
| 1777680042 | 23.33° C | 60% | 1010.8 hPa | 0 mm | - | - | - |
| 1777679141 | 23.89° C | 59% | 1010.7 hPa | 0 mm | - | - | - |
| 1777678245 | 24.44° C | 58% | 1010.6 hPa | 0 mm | - | - | - |
| 1777677339 | 25° C | 57% | 1010.7 hPa | 0 mm | - | - | - |
| 1777676441 | 24.44° C | 57% | 1010.8 hPa | 0 mm | - | - | - |
| 1777675536 | 24.44° C | 56% | 1010.9 hPa | 0 mm | - | - | - |
| 1777674636 | 25° C | 57% | 1011 hPa | 0 mm | - | - | - |
| 1777673732 | 25° C | 57% | 1011.3 hPa | 0 mm | - | - | - |
| 1777672835 | 25° C | 56% | 1011.5 hPa | 0 mm | - | - | - |
| 1777671928 | 25° C | 56% | 1011.6 hPa | 0 mm | - | - | - |
| 1777671040 | 25° C | 55% | 1011.9 hPa | 0 mm | - | - | - |
| 1777670127 | 25° C | 55% | 1012.1 hPa | 0 mm | - | - | - |
| 1777669236 | 24.44° C | 57% | 1012.3 hPa | 0 mm | - | - | - |
| 1777668323 | 23.89° C | 59% | 1012.5 hPa | 0 mm | - | - | - |
| 1777667417 | 23.33° C | 61% | 1012.4 hPa | 0 mm | - | - | - |
| 1777666519 | 22.78° C | 63% | 1012.5 hPa | 0 mm | - | - | - |
| 1777665611 | 22.22° C | 64% | 1012.6 hPa | 0 mm | - | - | - |
* Rain latest hour (hover to see other rain measurements)
** Current wind speed in m/s (hover to see current wind gust speed)